When you browse on this site, cookies collect data to enhance your experience and personalize the content and advertising you see.
Visit our Privacy Policy to learn more. By continuing to use the site, you agree to this use of cookies and data.
  • In United Kingdom
  • List of Countries
  • For 7 days
  • Water Temperature
  • Weather Map
  • Weather Widgets
  • user-avatar
    Login

    Hourly Weather Yoro

    Today, 6 December, Friday

    Time Temperature Precipitation Wind Pressure Humidity
    00:00 +20°C° 0 mm 1 mps 701 mmHg 98%
    01:00 +17°C° 0 mm 0 mps 701 mmHg 97%
    02:00 +17°C° 0 mm 0 mps 701 mmHg 97%
    03:00 +17°C° 0 mm 0 mps 701 mmHg 97%
    04:00 +17°C° 0 mm 0 mps 701 mmHg 97%
    05:00 +16°C° 0 mm 0 mps 701 mmHg 96%
    06:00 +16°C° 0 mm 0 mps 701 mmHg 96%
    07:00 +18°C° 0 mm 0 mps 702 mmHg 87%
    08:00 +20°C° 0 mm 0 mps 703 mmHg 77%
    09:00 +22°C° 0 mm 0 mps 703 mmHg 68%
    10:00 +26°C° 0 mm 1 mps 703 mmHg 63%
    11:00 +27°C° 0 mm 1 mps 703 mmHg 57%
    12:00 +28°C° 0 mm 1 mps 703 mmHg 52%
    13:00 +28°C° 0 mm 1 mps 702 mmHg 55%
    14:00 +28°C° 0 mm 1 mps 702 mmHg 58%
    15:00 +27°C° 0 mm 2 mps 701 mmHg 61%
    16:00 +26°C° 0 mm 1 mps 701 mmHg 72%
    17:00 +24°C° 0 mm 1 mps 701 mmHg 83%
    18:00 +22°C° 0 mm 1 mps 701 mmHg 93%
    19:00 +21°C° 0 mm 1 mps 702 mmHg 95%
    20:00 +21°C° 0 mm 1 mps 702 mmHg 96%
    21:00 +20°C° 0 mm 1 mps 703 mmHg 98%
    22:00 +21°C° 0 mm 1 mps 703 mmHg 97%
    23:00 +21°C° 0 mm 1 mps 703 mmHg 97%

    Tomorrow, 7 December, Saturday

    Time Temperature Precipitation Wind Pressure Humidity
    00:00 +21°C° 0 mm 1 mps 702 mmHg 97%
    01:00 +21°C° 0.1 mm 1 mps 702 mmHg 96%
    02:00 +21°C° 0.1 mm 1 mps 702 mmHg 96%
    03:00 +21°C° 0.1 mm 1 mps 702 mmHg 96%
    04:00 +19°C° 0.1 mm 0 mps 702 mmHg 96%
    05:00 +18°C° 0.1 mm 0 mps 702 mmHg 97%
    06:00 +18°C° 0.1 mm 0 mps 702 mmHg 97%
    07:00 +21°C° 0.1 mm 1 mps 703 mmHg 92%
    08:00 +23°C° 0.1 mm 1 mps 703 mmHg 86%
    09:00 +24°C° 0.1 mm 1 mps 704 mmHg 80%
    10:00 +25°C° 0.2 mm 1 mps 703 mmHg 76%
    11:00 +26°C° 0.2 mm 2 mps 703 mmHg 72%
    12:00 +27°C° 0.2 mm 2 mps 703 mmHg 68%
    13:00 +27°C° 0.4 mm 2 mps 702 mmHg 71%
    14:00 +26°C° 0.4 mm 2 mps 702 mmHg 74%
    15:00 +26°C° 0.4 mm 2 mps 701 mmHg 77%
    16:00 +24°C° 0.3 mm 2 mps 701 mmHg 83%
    17:00 +23°C° 0.3 mm 2 mps 701 mmHg 89%
    18:00 +21°C° 0.3 mm 1 mps 701 mmHg 96%
    19:00 +20°C° 0 mm 1 mps 702 mmHg 96%
    20:00 +20°C° 0 mm 1 mps 702 mmHg 97%
    21:00 +20°C° 0 mm 1 mps 703 mmHg 97%
    22:00 +19°C° 0 mm 1 mps 702 mmHg 97%
    23:00 +19°C° 0 mm 1 mps 702 mmHg 97%

    Day after tomorrow, 8 December, Sunday

    Time Temperature Precipitation Wind Pressure Humidity
    00:00 +16°C° 0 mm 0 mps 702 mmHg 97%
    01:00 +16°C° 0 mm 0 mps 701 mmHg 97%
    02:00 +16°C° 0 mm 0 mps 701 mmHg 97%
    03:00 +16°C° 0 mm 0 mps 701 mmHg 97%
    04:00 +16°C° 0 mm 0 mps 701 mmHg 97%
    05:00 +15°C° 0 mm 0 mps 701 mmHg 97%
    06:00 +15°C° 0 mm 0 mps 701 mmHg 97%
    07:00 +17°C° 0 mm 0 mps 702 mmHg 89%
    08:00 +22°C° 0 mm 1 mps 702 mmHg 81%
    09:00 +24°C° 0 mm 1 mps 703 mmHg 73%
    10:00 +25°C° 0 mm 1 mps 703 mmHg 68%
    11:00 +26°C° 0 mm 1 mps 702 mmHg 63%
    12:00 +27°C° 0 mm 2 mps 702 mmHg 58%
    13:00 +27°C° 0 mm 2 mps 701 mmHg 62%
    14:00 +27°C° 0 mm 2 mps 701 mmHg 66%
    15:00 +26°C° 0 mm 2 mps 700 mmHg 70%
    16:00 +24°C° 0.1 mm 1 mps 700 mmHg 78%
    17:00 +23°C° 0.1 mm 1 mps 700 mmHg 87%
    18:00 +21°C° 0.1 mm 1 mps 700 mmHg 96%
    19:00 +21°C° 0 mm 1 mps 700 mmHg 96%
    20:00 +20°C° 0 mm 1 mps 701 mmHg 97%
    21:00 +20°C° 0 mm 1 mps 701 mmHg 98%
    22:00 +20°C° 0 mm 1 mps 701 mmHg 98%
    23:00 +18°C° 0 mm 0 mps 701 mmHg 97%

    9 December, Monday

    Time Temperature Precipitation Wind Pressure Humidity
    00:00 +18°C° 0 mm 0 mps 700 mmHg 97%
    01:00 +18°C° 0 mm 0 mps 700 mmHg 97%
    02:00 +17°C° 0 mm 0 mps 700 mmHg 97%
    03:00 +17°C° 0 mm 0 mps 699 mmHg 97%
    04:00 +17°C° 0 mm 0 mps 700 mmHg 97%
    05:00 +17°C° 0 mm 0 mps 700 mmHg 97%
    06:00 +16°C° 0 mm 0 mps 700 mmHg 97%
    07:00 +19°C° 0 mm 0 mps 701 mmHg 88%
    08:00 +21°C° 0 mm 0 mps 701 mmHg 78%
    09:00 +23°C° 0 mm 0 mps 702 mmHg 69%
    10:00 +26°C° 0 mm 1 mps 701 mmHg 64%
    11:00 +28°C° 0 mm 1 mps 701 mmHg 59%
    12:00 +29°C° 0 mm 1 mps 701 mmHg 54%
    13:00 +29°C° 0 mm 1 mps 700 mmHg 57%
    14:00 +28°C° 0 mm 1 mps 699 mmHg 59%
    15:00 +28°C° 0 mm 1 mps 699 mmHg 62%
    16:00 +26°C° 0 mm 1 mps 699 mmHg 71%
    17:00 +24°C° 0 mm 1 mps 699 mmHg 81%
    18:00 +20°C° 0 mm 0 mps 699 mmHg 90%
    19:00 +20°C° 0 mm 0 mps 699 mmHg 92%
    20:00 +19°C° 0 mm 0 mps 700 mmHg 94%
    21:00 +21°C° 0 mm 1 mps 700 mmHg 95%
    22:00 +19°C° 0 mm 0 mps 700 mmHg 96%
    23:00 +18°C° 0 mm 0 mps 700 mmHg 96%

    10 December, Tuesday

    Time Temperature Precipitation Wind Pressure Humidity
    00:00 +18°C° 0 mm 0 mps 699 mmHg 96%
    01:00 +18°C° 0 mm 0 mps 699 mmHg 96%
    02:00 +18°C° 0 mm 0 mps 699 mmHg 96%
    03:00 +20°C° 0 mm 1 mps 699 mmHg 96%
    04:00 +20°C° 0 mm 1 mps 699 mmHg 96%
    05:00 +20°C° 0 mm 1 mps 699 mmHg 96%
    06:00 +19°C° 0 mm 1 mps 700 mmHg 95%
    07:00 +22°C° 0 mm 1 mps 700 mmHg 87%
    08:00 +24°C° 0 mm 1 mps 701 mmHg 78%
    09:00 +26°C° 0 mm 1 mps 702 mmHg 69%
    10:00 +28°C° 0 mm 1 mps 701 mmHg 63%
    11:00 +29°C° 0 mm 1 mps 701 mmHg 57%
    12:00 +30°C° 0 mm 1 mps 700 mmHg 51%
    13:00 +30°C° 0.2 mm 1 mps 700 mmHg 55%
    14:00 +30°C° 0.2 mm 1 mps 700 mmHg 58%
    15:00 +29°C° 0.2 mm 1 mps 699 mmHg 61%
    16:00 +27°C° 0.3 mm 1 mps 699 mmHg 71%
    17:00 +25°C° 0.3 mm 1 mps 699 mmHg 81%
    18:00 +23°C° 0.3 mm 1 mps 699 mmHg 91%
    19:00 +22°C° 0.1 mm 1 mps 700 mmHg 92%
    20:00 +22°C° 0.1 mm 1 mps 700 mmHg 94%
    21:00 +20°C° 0.1 mm 0 mps 701 mmHg 96%
    22:00 +19°C° 0.3 mm 0 mps 701 mmHg 96%
    23:00 +19°C° 0.3 mm 0 mps 701 mmHg 96%

    11 December, Wednesday

    Time Temperature Precipitation Wind Pressure Humidity
    00:00 +19°C° 0.3 mm 0 mps 700 mmHg 96%
    01:00 +19°C° 0.1 mm 0 mps 700 mmHg 96%
    02:00 +18°C° 0.1 mm 0 mps 700 mmHg 97%
    03:00 +18°C° 0.1 mm 0 mps 700 mmHg 97%
    04:00 +18°C° 0 mm 0 mps 700 mmHg 97%
    05:00 +18°C° 0 mm 0 mps 700 mmHg 97%
    06:00 +18°C° 0 mm 0 mps 701 mmHg 97%
    07:00 +20°C° 0 mm 0 mps 702 mmHg 92%
    08:00 +23°C° 0 mm 1 mps 702 mmHg 86%
    09:00 +25°C° 0 mm 1 mps 703 mmHg 80%
    10:00 +26°C° 0.3 mm 1 mps 703 mmHg 76%
    11:00 +27°C° 0.3 mm 2 mps 702 mmHg 71%
    12:00 +28°C° 0.3 mm 2 mps 702 mmHg 66%
    13:00 +27°C° 1.1 mm 2 mps 701 mmHg 72%
    14:00 +26°C° 1.1 mm 2 mps 701 mmHg 78%
    15:00 +26°C° 1.1 mm 2 mps 700 mmHg 83%
    16:00 +24°C° 0.7 mm 1 mps 700 mmHg 88%
    17:00 +23°C° 0.7 mm 1 mps 701 mmHg 92%
    18:00 +22°C° 0.7 mm 1 mps 701 mmHg 97%
    19:00 +21°C° 0 mm 1 mps 701 mmHg 97%
    20:00 +21°C° 0 mm 1 mps 702 mmHg 98%
    21:00 +20°C° 0 mm 1 mps 702 mmHg 98%
    22:00 +20°C° 0 mm 1 mps 702 mmHg 98%
    23:00 +20°C° 0 mm 1 mps 701 mmHg 98%
    Show more